Orbital Elements at Epoch 2459200.5 (2020-Dec-17.0) TDB
Reference: JPL 15 (heliocentric ecliptic J2000)
Element | Value | Uncertainty (1-sigma) | Units |
e | .1307429797981366 | 4.6904e-08 | |
a | 2.613063841529661 | 3.6079e-08 | au |
q | 2.271424088485307 | 1.2377e-07 | au |
i | 3.33590718074742 | 5.2419e-06 | deg |
node | 52.31407721894895 | 0.00016056 | deg |
peri | 186.6393443695827 | 0.00016628 | deg |
M | 244.1750769610274 | 5.0049e-05 | deg |
tp | 2459696.889946449396 (2022-Apr-27.38994645) | 0.00022186 | TDB |
period | 1542.849121183129 4.22 | 3.1953e-05 8.748e-08 | d yr |
n | .2333345464940442 | 4.8325e-09 | deg/d |
Q | 2.954703594574014 | 4.0796e-08 | au |
|
| | Orbit Determination Parameters
Additional Information
|